Weather in Yusva

Russia / Perm Krai     58°57′57″N   54°57′16″E
temp.,
°C
wind,
m/s
gust,
m/s
humid.,
%
clouds,
%
prec.,
mm/h
press.,
hPa
HPBL,
m
27 february, sat
sat2723:00−20se31196100 0.1 1018418
02:00−20se4119593 0.0 1016416
05:00−20ese4119587 0.0 1014357
08:00−20ese4109474 0.0 1012332
11:00−17ese498855 0.0 1011364
14:00−14e49830 0.0 1009428
17:00−13e488821 0.0 1009516
20:00−17e4109392 0.0 1010400
28 february, sun
sun2823:00−19e4119393 0.0 1011446
02:00−21e399492 0.0 1011338
05:00−23ene389561 0.0 1012224
08:00−24ene279532 0.0 1012191
11:00−20ene378816 0.0 1012367
14:00−16ene358644 0.0 1012497
17:00−14ne368971 0.0 1013575
20:00−18nne239692 0.0 101555
1 march, mon
mon123:00−20ne229979 0.0 101720
02:00−22ene119829 0.0 101920
05:00−23ne119618 0.0 102020
08:00−24nnw00962 0.0 102120
11:00−19w01891 0.0 1021136
14:00−14sw12812 0.0 1020340
17:00−12sw138526 0.0 1019429
20:00−17s23945 0.0 101842
2 march, tue
tue223:00−18ssw38957 0.0 1017153
02:00−18ssw3109428 0.0 1015262
05:00−18ssw4109458 0.0 1012336
08:00−17s41192100 0.0 1009398
11:00−15s51092100 0.1 1007411
14:00−13s51192100 0.5 1005502
17:00−12s51093100 1.2 1004587
20:00−13s4993100 0.6 1003581
3 march, wed
wed323:00−13s3894100 0.9 1003440
02:00−13s2695100 0.3 1003310
05:00−14s2596100 0.6 1003193
08:00−14s2496100 0.4 1003159
11:00−12ssw1393100 0.5 1003251
14:00−9ssw1287100 0.1 1003392
17:00−8sw1290100 0.2 1003303
20:00−10s129799 0.2 100421